Regional Weather Roundup
Issued by NWS New Orleans/Baton Rouge, LA

Home | Current Version | Previous Version | Graphics & Text | Print | Product List | Glossary On
Versions: 1 2 3 4 5 6 7 8 9 10 11 12 13 14 15 16 17 18 19 20 21 22 23 24 25 26 27 28 29 30 31 32 33 34 35 36 37 38 39 40 41 42 43 44 45 46 47 48 49 50
346
ASUS44 KLIX 221401
RWRLIX
NEW ORLEANS REGIONAL WEATHER ROUNDUP
NATIONAL WEATHER SERVICE NEW ORLEANS LA
900 AM CDT MON SEP 22 2014

NOTE: "FAIR" INDICATES FEW OR NO CLOUDS BELOW 12,000 FEET WITH NO
      SIGNIFICANT WEATHER AND/OR OBSTRUCTIONS TO VISIBILITY.
      SKY/WX - SKY CONDITION AND SIGNIFICANT WEATHER.
      TMP - AIR TEMPERATURE.     DP    - DEWPOINT TEMPERATURE.
      RH  - RELATIVE HUMIDITY.   PRES  - PRESSURE.
      HI  - HEAT INDEX.          WCI   - WIND CHILL INDEX.

*  THESE STATIONS ARE NOT NWS OR FAA STATIONS AND ARE NOT UNDER
   NWS QUALITY CONTROL.

LAZ038-040-048-061>063-065>067-069-221500-
SOUTHEAST LOUISIANA

CITY           SKY/WX    TMP DP  RH WIND       PRES   REMARKS
N.O. AUDUBON     N/A     80  76  87 MISG        N/A
N.O. INTL ARPT MOSUNNY   82  70  66 N7        30.04R
N.O. LAKEFRONT SUNNY     82  73  74 N8        30.05R
N.O. DOWNTOWN*   N/A     81  70  69 NW3       30.05R
SLIDELL        SUNNY     78  69  73 NW5       30.04R
BATON ROUGE    SUNNY     77  69  76 VRB5      30.06R
BOOTHVILLE     SUNNY     82  75  79 N8        30.03S
BELLE CHASSE   MOSUNNY   82  73  74 N7        30.04R
BOGALUSA*        N/A     75  68  79 N5        30.08R
GALLIANO*      NOT AVBL
NEW ROADS*       N/A     75  71  87 N8        30.07R
GONZALES*        N/A     76  72  87 N3        30.05R
HAMMOND*       NOT AVBL
HOUMA*         SUNNY     79  61  53 N7        30.04R
PORT FOURCHON* SUNNY     82  72  69 NE10      30.06S

$$

MSZ070-080>082-221500-
SOUTHERN MISSISSIPPI

CITY           SKY/WX    TMP DP  RH WIND       PRES   REMARKS
MCCOMB         SUNNY     75  65  70 NE9       30.08R
GULFPORT       SUNNY     77  71  82 NW3       30.03S
BILOXI         SUNNY     78  71  77 N2        30.04R
PASCAGOULA     SUNNY     78  72  81 N8        30.05R
STENNIS ARPT*  SUNNY     75  70  83 CALM      30.04S

$$

COASTAL OBSERVATIONS
LAKE AND NEARSHORE STATIONS

STATION/POSITION TIME  TEMP    WIND        PRES    WAVE
                       AIR SEA DIR/SP/G            HT/PER
                 (UTC) (F)     (DEG/KT/KT) (MB)    (FT/S)
PASCAGOULA       1300   78     340/  3/  5 1016.5
WAVELAND YACHT   1300   75     360/  5/  7 1016.5
GRAND ISLE       1300   80 82   30/ 12/ 13 1017.3
SOUTHWEST PASS   1300   86 89   30/ 12/ 14 1016.7
NEW CANAL        1300   80 81  350/  7/  9 1017.7
SHELL BEACH      1300   79 77   10/  8/  9 1016.9

OFFSHORE STATIONS

STATION/POSITION TIME  TEMP    WIND        PRES    WAVE
                       AIR SEA DIR/SP/G            HT/PER
                 (UTC) (F)     (DEG/KT/KT) (MB)    (FT/S)
64 S DAUPHIN ISL 1343   82 84   50/ 14/ 16 1016.9    2/ 5

$$




USA.gov is the U.S. government's official web portal to all federal, state and local government web resources and services.